Home   Weather   Beira   Past weeks

Flag for Mozambique Past Weather in Beira, Mozambique — Yesterday and Last 2 Weeks

Now
82 °F

Scattered clouds.


Feels Like: 89 °F
Forecast: 73 / 83 °F
Wind: N/A

Location: Beira Airport

Current Time: Sep 29, 2016 at 3:41:00 PM

Latest Report: Sep 29, 2016 at 3:00 PM


Visibility: N/A

Pressure: 29.95 "Hg

Humidity: 79%

Dew Point: 75 °F

Location of BeiraLocation

Past Weather in Beira — Graph

°F

Beira Temperature Yesterday

Maximum temperature yesterday: 88 °F (at 3:00 PM)
Minimum temperature yesterday: 72 °F (at 5:00 AM)
Average temperature yesterday: 80 °F

High & Low Weather Summary for the Past Weeks

 TemperatureHumidityPressure
High91 °F (Sep 23, 12:00 PM)100% (Sep 15, 6:00 AM)30.21 "Hg (Sep 15, 6:00 AM)
Low66 °F (Sep 16, 5:00 AM)46% (Sep 23, 12:00 PM)29.80 "Hg (Sep 28, 2:00 PM)
Average77 °F80%29.99 "Hg
* Reported Sep 14 2:00 PM — Sep 29 2:00 PM, Beira, Weather by CustomWeather, © 2016

Note: Actual official high and low records may vary slightly from our data, if they occured in-between our weather recording intervals... More about our weather records

Advertising

Beira Weather History for the Previous 24 Hours

Scroll right to see more
 ConditionsComfort  
Time TempWeatherWind HumidityBarometerVisibility
2:00 PM
Thu, Sep 29
82 °FScattered clouds.N/A79%29.98 "HgN/A
1:00 PM84 °FPartly sunny.N/A74%29.98 "HgN/A
11:00 AM84 °FScattered clouds.N/A74%30.04 "HgN/A
10:00 AM82 °FPartly sunny.N/A74%30.04 "HgN/A
9:00 AM81 °FPassing clouds.N/A79%30.04 "HgN/A
8:00 AM77 °FPassing clouds.N/A83%30.04 "HgN/A
7:00 AM73 °FFog.N/A83%30.01 "Hg3 mi
12:00 AM73 °FClear.N/A89%29.92 "HgN/A
11:00 PM
Wed, Sep 28
75 °FClear.N/A83%29.95 "Hg10 mi
10:00 PM77 °FClear.N/A79%29.92 "Hg10 mi
9:00 PM79 °FClear.N/A74%29.92 "Hg10 mi
7:00 PM81 °FClear.N/A66%29.89 "Hg10 mi
6:00 PM82 °FClear.N/A62%29.86 "Hg10 mi
5:00 PM84 °FSunny.N/A62%29.83 "Hg10 mi
4:00 PM86 °FSunny.N/A62%29.80 "Hg10 mi
3:00 PM88 °FSunny.N/A59%29.80 "Hg10 mi
Weather by CustomWeather, © 2016

See weather overviewHow to use our weather pages